Location: Newark
(7.0858°N, 171.3717°E)
Time: 07:47:13
(UTC+00:00)

Courier 1B - Pass Details

Date: 30 November 2020
Orbit: 962 x 1209 km, 28.3° (Epoch: 20 January)

Event Time Altitude Azimuth Distance (km) Brightness Sun altitude
Rises 07:05:26 0° 243° (WSW) 3,640 12.6 -12.4°
Reaches altitude 10° 07:08:04 10° 245° (WSW) 2,685 11.3 -13.0°
Maximum altitude 07:14:32 79° 331° (NNW) 980 7.5 -14.5°
Enters shadow 07:19:04 21° 56° (NE) 2,017 8.6 -15.5°
Drops below altitude 10° 07:21:06 10° 58° (ENE) 2,731 - -16.0°
Sets 07:23:49 0° 59° (ENE) 3,706 - -16.6°
